This is the latest recevied weather packets stored in our database for station/object IT9ITI-10. If no packets are shown the sender has not sent any weather packets the latest 10 day(s).
| Time | Temp. | Humidity | Pressure | Rain* | Wind** | Luminosity | Snow |
|---|---|---|---|---|---|---|---|
| 1777761925 | 24.44° C | 44% | 941.7 hPa | - | - | - | - |
| 1777758325 | 24.44° C | 44% | 941.7 hPa | - | - | - | - |
| 1777754725 | 23.89° C | 44% | 941.8 hPa | - | - | - | - |
| 1777751125 | 23.89° C | 44% | 941.5 hPa | - | - | - | - |
| 1777747525 | 24.44° C | 45% | 940.7 hPa | - | - | - | - |
| 1777743925 | 23.89° C | 45% | 940 hPa | - | - | - | - |
| 1777740325 | 23.89° C | 45% | 939.4 hPa | - | - | - | - |
| 1777736725 | 23.89° C | 44% | 939.2 hPa | - | - | - | - |
| 1777733125 | 23.89° C | 44% | 939 hPa | - | - | - | - |
| 1777729525 | 23.89° C | 44% | 939.2 hPa | - | - | - | - |
| 1777725926 | 24.44° C | 43% | 939.6 hPa | - | - | - | - |
| 1777722325 | 24.44° C | 43% | 939.6 hPa | - | - | - | - |
| 1777718726 | 25° C | 43% | 939.8 hPa | - | - | - | - |
| 1777715126 | 25.56° C | 43% | 939.8 hPa | - | - | - | - |
| 1777714509 | 23.89° C | 46% | 939.8 hPa | - | - | - | - |
| 1777712134 | 23.89° C | 46% | 939.5 hPa | - | - | - | - |
| 1777708534 | 23.89° C | 46% | 939.5 hPa | - | - | - | - |
| 1777704934 | 23.33° C | 46% | 939.4 hPa | - | - | - | - |
| 1777701334 | 23.33° C | 46% | 939.1 hPa | - | - | - | - |
| 1777697734 | 23.33° C | 46% | 938.8 hPa | - | - | - | - |
| 1777694134 | 23.33° C | 46% | 938.6 hPa | - | - | - | - |
| 1777690534 | 23.33° C | 46% | 938.8 hPa | - | - | - | - |
| 1777686934 | 23.33° C | 46% | 939.2 hPa | - | - | - | - |
| 1777683334 | 23.89° C | 46% | 939.1 hPa | - | - | - | - |
| 1777679734 | 23.89° C | 46% | 939.1 hPa | - | - | - | - |
* Rain since midnight (hover to see other rain measurements)
** Current wind speed in m/s (hover to see current wind gust speed)